Location: Newark
(52.4019°N, 0.6844°W)
Time: 06:10:46
(UTC+00:00)

N. Korean satellite - Visible Passes

Search period start: 12 November 2019 00:00
Search period end: 22 November 2019 00:00
Orbit: 456 x 506 km, 97.2° (Epoch: 10 November)

Date Brightness Start Highest point End Pass type
(mag) Time Alt. Az. Time Alt. Az. Time Alt. Az.
12 Nov 7.1 05:58:17 10° NNE 06:02:01 65° ESE 06:05:43 10° S visible
12 Nov 10.0 18:14:19 10° WSW 18:16:23 14° W 18:18:27 10° NW visible
13 Nov 8.5 05:33:06 10° NNE 05:36:33 35° E 05:39:59 10° SSE visible
13 Nov 9.1 17:47:43 10° SSW 17:50:46 25° W 17:53:52 10° NW visible
14 Nov 9.5 05:08:13 10° NE 05:11:01 20° E 05:13:47 10° SE visible
14 Nov 7.0 06:41:03 10° N 06:44:36 43° WNW 06:48:08 10° SW visible
14 Nov 7.8 17:21:45 10° S 17:25:14 46° W 17:28:50 10° NNW visible
15 Nov 10.3 04:44:10 10° ENE 04:45:22 11° E 04:46:33 10° ESE visible
15 Nov 6.6 06:15:33 10° NNE 06:19:18 81° WNW 06:23:00 10° SSW visible
15 Nov 6.6 16:56:11 10° SSE 16:59:49 89° W 17:03:32 10° NNW visible
16 Nov 7.5 05:50:13 10° NNE 05:53:53 53° E 05:57:31 10° S visible
16 Nov 9.8 18:05:40 10° SW 18:08:09 17° W 18:10:41 10° NW visible
17 Nov 8.8 05:25:06 10° NNE 05:28:24 29° E 05:31:39 10° SSE visible
17 Nov 8.7 17:39:19 10° SSW 17:42:34 30° W 17:45:53 10° NNW visible
18 Nov 9.8 05:00:21 10° NE 05:02:48 17° E 05:05:13 10° SE visible
18 Nov 6.8 06:32:51 10° N 06:36:30 52° WNW 06:40:06 10° SSW visible
18 Nov 7.4 17:13:28 10° S 17:17:04 57° W 17:20:45 10° NNW visible
19 Nov 6.7 06:07:24 10° NNE 06:11:09 83° ESE 06:14:50 10° SSW visible
19 Nov 6.6 16:48:00 10° SSE 16:51:40 75° ENE 16:55:23 10° N visible
19 Nov 10.2 18:24:09 10° WSW 18:25:34 12° W 18:27:00 10° WNW visible
20 Nov 7.9 05:42:07 10° NNE 05:45:42 43° E 05:49:14 10° S visible
20 Nov 9.5 17:57:05 10° SW 17:59:54 21° W 18:02:47 10° NW visible
21 Nov 9.1 05:17:04 10° NE 05:20:09 24° E 05:23:12 10° SSE visible
21 Nov 7.3 06:50:14 10° N 06:53:38 34° WNW 06:57:00 10° SW visible
21 Nov 8.3 17:30:55 10° SSW 17:34:20 37° W 17:37:50 10° NNW visible
